STARLINK-38403, 100632

Orbit data source: Space-Track

STARLINK-38403, 100632 is a payload satellite owned by SpaceX/Seattle (US) in LEO that was launched on Sun, 06 Sep 2026 UTC launched from the Air Force Western Test Range (AFWTR). Payload-class satellites include a variety of spacecraft equipped with specific instruments for various scientific and technological missions. These include communications satellites like Starlink; space stations such as the ISS; scientific satellites like the Hubble; Earth observation satellites from companies like Planet Labs, Umbra, and HawkEye 360; GPS; miniature CubeSats for education and research; and military/defense satellites.

Not visible in the next 10 days
Identifier
100632, 2026-204T
Orbit
LEO
Country
Flag of USUS
Related business
Manufacturer
SpaceX/Seattle
Mission
Operational spacecraft
Bus & Motor
STARLINK V2MO, Unknown motor
Mass
575 kg wet, ~530 kg dry
Launch date (UTC)
2026-09-06 (5 days ago)
Launch vehicle
Unknown
Launch site
Air Force Western Test Range (AFWTR)
Object type
Payload
Rocket body
Debris
Shape & HBR
BOX + PAN, 17.7 m
Radar Cross Section
RCS unknown

Expand to show TLE details & history
Last TLE update: 21 hours ago

TLE from 21 hours ago
0 STARLINK-38403
1 A0632U          26253.56823883 -.01148804  42715-3 -21813-2 0  9999
2 A0632  69.9973 266.2478 0005015 273.6151  86.4486 16.00515399   642
Epoch: 2026-09-10T13:38Z
TLE epoch observation values (Epoch: 2026-09-10T13:38:15.834Z)
Latitude
-0.00011°
Longitude
72.07771°
Altitude
275.318 km
Speed
7.743 km/s
True Right ascension
17h 44m 59s
True Declination
0° 00' 00"
Sunlit
Object was in daylight at epoch
Visualization orbit readout
Latitude
Unknown
Longitude
Unknown
Altitude
Unknown
Speed
Unknown
Apparent Right ascension
Unknown
Apparent Declination
Unknown
Sunlit
N/A
Visualization observer readout
Local Sidereal Time
02:29:48
Azimuth
Unknown
Elevation
Unknown
Doppler factor
Unknown
Orbital elements
Apogee altitude
274.181 km
Perigee altitude
267.512 km
Semi-major axis
6,648.983 km
Eccentricity
0.0005
Inclination
69.9973°
RAAN
266.2478°
Arg. of periapsis
273.6151°
True anomaly
86.50596°
Mean anomaly
86.4486°
Eccentric anomaly
86.47728°
Mean motion
4.00323 °/min
Orbital period
89.93 mins
BSTAR
-0.0021813
Loading maneuver chart data...
Computing Atmospheric mass density...
Loading historical data...
Loading historical data...
Loading historical data...
Loading historical data...
Loading historical data...
Loading historical data...
Loading historical data...

Documentation

Showing up to 5 results
|